Location: Baronissi
(40.7333°N, 14.7500°E)
Time: 12:56:24
(UTC+00:00)

Daily predictions for brighter satellites

Satellite Brightness Start Highest point End
(mag) Time Altitude Azimuth Time Altitude Azimuth Time Altitude Azimuth
Cosmos 783 Rocket 4.5 18:42:35 10° SSW 18:47:45 76° ESE 18:52:57 10° NNE
Cosmos 1437 2.3 18:49:06 10° N 18:51:51 68° E 18:54:35 10° SSE
Cosmos 1869 4.4 18:48:52 10° NNW 18:52:34 45° W 18:56:13 10° SSW
Atlas Centaur 2 3.0 18:50:04 10° SW 18:53:17 19° S 18:56:09 10° SE
ATLAS 2AS CENTAUR R/B 3.3 18:45:25 10° SW 18:53:21 81° NW 19:01:11 10° NNE
Cosmos 1953 Rocket 4.2 18:48:56 10° SSW 18:53:22 64° W 18:57:50 10° N
Helios 1A Rocket 2.9 18:54:11 10° SSE 18:58:13 88° WSW 19:02:19 10° NNW
Cosmos 1697 Rocket 2.8 18:52:34 10° NNW 18:58:16 88° ENE 19:03:56 10° SSE
Cosmos 1076 Rocket 4.2 18:55:41 10° SSE 18:59:36 35° E 19:03:35 10° NNE
Cosmos 1437 Rocket 3.9 18:56:41 10° NNW 19:00:24 46° W 19:04:11 10° S
ATLAS 3B R/B 3.4 18:55:45 10° NNW 19:02:33 46° NE 19:09:27 11° ESE
Cosmos 2279 Rocket 4.0 18:57:14 10° N 19:03:27 81° E 19:09:39 10° S
BREEZE M DEB (TANK) 3.8 19:01:19 10° S 19:03:36 22° ESE 19:09:22 10° ENE
Cosmos 773 Rocket 4.0 18:59:09 10° SSW 19:04:22 87° ESE 19:09:34 10° NNE
Cosmos 1833 Rocket 3.8 18:59:14 10° SW 19:04:42 51° WNW 19:10:12 10° NNE
OBJECT-B 1.9 19:03:41 10° S 19:06:46 44° W 19:09:51 10° NNW
SAR-Lupe-1 4.2 19:03:30 10° N 19:07:05 77° WNW 19:10:39 10° SSW
SAR-Lupe-4 3.6 19:04:39 10° NNE 19:08:16 86° WNW 19:11:50 10° SSW
Cosmos 2082 Rocket 2.2 19:05:34 10° SSW 19:11:12 89° E 19:16:53 10° NNE
SJ-6B 3.4 19:07:44 10° S 19:11:22 53° W 19:15:02 10° NNW
Resurs 1-3 3.6 19:12:20 10° SSE 19:16:43 87° ENE 19:21:08 10° NNW
Cosmos 1842 Rocket 3.6 19:12:35 10° N 19:17:05 80° E 19:21:34 10° S
Cosmos 2278 4.0 19:12:23 10° NNW 19:17:56 53° ENE 19:22:42 14° SE
Cosmos 1633 2.4 19:18:05 10° S 19:21:39 69° E 19:25:16 10° NNE
Cosmos 2360 Rocket 4.4 19:22:32 10° NNE 19:24:13 11° NE 19:25:54 10° ENE
Cosmos 158 Rocket 4.2 19:20:19 10° S 19:25:10 46° ESE 19:30:11 10° NNE
Nadezhda 4 Rocket 3.9 19:23:57 10° S 19:30:03 72° E 19:36:16 10° NNE
Cosmos 1606 2.6 19:28:41 10° N 19:32:29 86° W 19:36:00 12° S
Landsat 7 3.8 19:32:01 14° SSE 19:36:02 70° ENE 19:40:47 10° N
GP-B 4.3 19:33:25 10° NNE 19:37:08 26° E 19:38:47 20° ESE
SPOT 3 Rocket 3.6 19:33:28 15° SSE 19:37:44 64° ENE 19:42:54 10° N
IGS 5A 3.4 19:35:49 14° SSE 19:39:18 87° E 19:43:28 10° NNW
Cosmos 1680 Rocket 4.4 19:37:14 18° SE 19:39:59 28° E 19:44:26 10° NE
ISS -2.7 19:37:54 10° NW 19:41:05 37° NNE 19:42:58 20° E
MetOp-B 4.2 19:40:08 18° SSE 19:44:08 64° ENE 19:49:27 10° N
Cosmos 1980 Rocket 2.3 19:40:57 10° NNW 19:46:34 73° WSW 19:51:05 16° SSE
Cosmos 2369 4.4 19:41:22 10° NNW 19:46:50 52° WSW 19:52:03 11° S
CZ-2C R/B 3.7 19:44:21 10° NNE 19:48:46 54° E 19:52:04 17° S
RESURS DK-1 4.4 19:46:08 10° WSW 19:49:51 31° WNW 19:53:35 10° N
USA 245 4.1 19:47:53 22° SE 19:50:59 51° ENE 19:55:14 10° N
Cosmos 2221 3.9 19:47:21 10° NNW 19:51:21 38° W 19:55:21 10° SSW
ERBS 4.1 19:50:02 10° WNW 19:52:37 22° SW 19:54:07 16° SSW
Hubble Space Telescope 3.1 19:52:53 10° SSW 19:53:50 11° SSW 19:53:56 11° SSW
BREEZE-M DEB (TANK) 3.5 19:51:00 10° WSW 19:54:22 72° NNW 20:05:49 10° ENE
Meteor 2-15 4.4 19:50:18 10° N 19:56:23 79° E 20:00:51 19° SSE
Cosmos 2322 Rocket 3.3 19:52:18 10° N 19:57:15 30° ENE 19:59:58 21° E
Cosmos 304 Rocket 3.9 19:57:03 10° NNW 20:01:48 60° ENE 20:03:55 31° SE
BREEZE-M DEB (TANK) 4.0 19:58:21 10° NW 20:01:57 70° NNE 20:09:24 19° ESE
Resurs 01 Rocket 2.2 19:58:24 15° S 20:01:58 54° W 20:06:20 10° NNW
Cosmos 1933 3.3 19:58:57 10° N 20:02:59 68° E 20:04:32 35° SSE
Cosmos 2151 3.1 20:00:24 11° SSW 20:04:24 73° W 20:08:40 10° N
Cosmos 2098 Rocket 4.1 20:03:10 10° SW 20:05:54 30° WNW 20:09:01 10° NNW
ERS-2 4.3 20:03:38 10° N 20:06:45 27° WNW 20:09:51 10° SW
Meteor 2-3 Rocket 3.7 20:04:03 11° S 20:09:28 87° E 20:15:13 10° N
CARTOSAT-1 3.7 20:09:30 37° SE 20:10:59 60° ENE 20:15:15 10° N
Gbstr 26 Del rocket 3.8 20:07:40 10° NW 20:11:11 37° NNE 20:12:56 24° ENE
JB-3 4.3 20:07:30 10° NNE 20:11:39 87° E 20:13:56 26° S
Cosmos 2084 3.8 20:12:29 38° ESE 20:12:29 38° ESE 20:15:55 10° NE
Meteor 2-15 Rocket 4.4 20:08:26 10° N 20:14:32 86° E 20:18:11 26° S
Cosmos 2219 Rocket 4.4 20:16:12 10° NNE 20:18:15 12° NE 20:20:18 10° ENE
Cosmos 1862 4.4 20:21:26 28° ENE 20:21:26 28° ENE 20:24:24 10° NNE
COSMOS 2455 4.4 20:26:05 18° E 20:26:05 18° E 20:28:52 10° ENE
SL-16 R/B 2.3 20:20:19 10° NNW 20:25:58 66° ENE 20:28:03 39° SE
ARIANE 5 R/B 2.6 20:26:51 47° SSE 20:28:04 76° ENE 20:32:32 10° N
Cosmos 1782 2.7 20:25:24 10° N 20:29:26 80° E 20:30:03 62° SSE
Cosmos 371 Rocket 4.4 20:25:54 10° NW 20:30:19 37° WSW 20:32:51 21° SSW
Cosmos 1809 Rocket 4.4 20:30:11 32° S 20:33:10 70° E 20:39:17 10° NNE
SPOT 1/Viking Rocket 4.2 20:31:18 24° SSW 20:34:15 51° W 20:39:20 10° NNW
Meteor 2-6 Rocket 4.5 20:30:19 10° N 20:35:32 46° ENE 20:36:39 40° ESE
Cosmos 1271 Rocket 3.1 20:32:04 10° NNW 20:36:00 60° W 20:36:56 45° SSW
Cosmos 1766 Rocket 3.4 20:37:41 51° S 20:38:47 90° E 20:43:12 10° N
USA 276 3.0 20:35:46 10° NW 20:38:32 43° N 20:38:32 43° N
BREEZE-M DEB (TANK) 3.0 20:36:08 10° WNW 20:39:44 86° SSW 20:43:14 34° SE
Atlas Centaur 2 3.7 20:38:53 10° SW 20:39:03 11° SW 20:39:03 11° SW
Cosmos 1151 Rocket 2.9 20:38:41 10° N 20:43:04 88° ENE 20:43:40 66° SSE
Cosmos 1328 Rocket 3.4 20:42:52 10° N 20:47:19 74° E 20:47:39 70° ESE
Terra 1.7 20:47:56 60° SE 20:48:37 70° ENE 20:53:23 10° N
SPOT 5 2.5 20:50:49 65° SSW 20:51:21 76° WSW 20:55:43 10° NNW
ATLAS 3B R/B 3.7 20:46:36 10° NW 20:53:14 41° WSW 20:56:42 26° SSW
USA 267 3.2 20:48:25 10° NE 20:54:51 57° SE 20:59:02 23° SSW
Meteor 2-21 Rocket 4.4 20:56:51 49° SSE 20:58:31 71° E 21:04:41 10° NNE
NOSS 2-1 (C) 4.3 21:00:51 34° NNE 21:00:51 34° NNE 21:02:54 10° NNE
Meteor 1-27 Rocket 4.5 20:56:00 10° N 21:01:14 37° ENE 21:01:49 36° E
Cosmos 2056 Rocket 3.5 20:56:07 10° NNW 21:01:28 69° ENE 21:02:09 62° ESE
ERS-1 Rocket 3.2 21:00:35 48° SSW 21:01:43 62° WSW 21:06:43 10° NNW
SL-27 R/B 3.6 21:06:23 39° NNE 21:06:23 39° NNE 21:08:47 10° NNE
Meteor 2-21 4.5 21:02:37 38° SSW 21:05:12 78° W 21:11:24 10° N
NOSS 2-1 (D) 4.3 21:08:18 35° N 21:08:18 35° N 21:10:34 10° NNE
Cosmos 2360 Rocket 2.2 21:03:44 10° NNW 21:09:21 66° ENE 21:10:08 59° ESE
Cosmos 1833 4.1 21:14:09 58° SSW 21:15:23 86° ESE 21:21:12 10° NNE
ISS -1.2 21:14:53 10° WNW 21:15:56 17° W 21:15:56 17° W
Cosmos 2333 Rocket 2.9 21:14:36 10° N 21:19:53 39° ENE 21:20:38 37° ENE
Cosmos 1500 Rocket 4.1 21:22:34 52° NE 21:22:34 52° NE 21:26:03 10° NNE
Meteor 1-10 Rocket 4.0 21:16:45 10° N 21:22:20 89° W 21:22:51 75° S
Cosmos 1371 Rocket 4.1 21:17:36 10° NNW 21:22:56 68° WSW 21:23:22 65° SW
Cosmos 972 Rocket 4.5 21:23:45 49° ENE 21:23:45 49° ENE 21:27:58 10° NNE
Cosmos 1812 3.8 21:19:56 10° NNW 21:23:03 40° WNW 21:23:03 40° WNW
USA 234 4.5 21:22:43 15° E 21:27:21 36° NNE 21:33:12 10° NW
Cosmos 2322 4.3 21:24:46 10° NNW 21:30:15 45° ENE 21:30:48 44° ENE
Cosmos 292 Rocket 3.9 21:29:23 10° NNW 21:33:40 70° N 21:33:40 70° N
Cosmos 2237 Rocket 4.3 21:36:46 10° NNE 21:40:11 16° NE 21:42:15 13° ENE
Cosmos 2322 Rocket 3.0 21:36:10 10° NW 21:41:21 39° WSW 21:41:46 38° WSW
Cosmos 1743 Rocket 4.1 21:42:22 57° NNW 21:42:22 57° NNW 21:46:01 10° N
Cosmos 2285 Rocket 4.2 21:40:56 10° NNW 21:47:08 56° ENE 21:47:42 54° E
IRIDIUM 106 4.4 21:43:29 10° N 21:48:18 75° NNE 21:48:18 75° NNE
Sich 1 4.3 21:51:50 35° NNE 21:51:50 35° NNE 21:54:29 10° NNE
Cosmos 2315 Rocket 3.8 21:45:29 10° N 21:51:50 83° E 21:52:17 77° SE
Cosmos 2266 Rocket 4.3 21:53:29 49° WSW 21:54:42 58° W 22:00:49 10° N
Cosmos 1048 Rocket 4.4 21:59:26 57° NNE 21:59:26 57° NNE 22:03:31 10° NNE
Cosmos 489 Rocket 4.4 21:59:04 71° E 21:59:04 71° E 22:05:15 10° NNE
Cosmos 2219 Rocket 2.3 21:57:40 10° NNW 22:02:58 69° NE 22:02:58 69° NE
BREEZE-M DEB (TANK) 4.3 21:50:19 10° WSW 22:06:15 86° SSE 22:10:47 10° ENE
Cosmos 2228 Rocket 4.1 22:02:56 10° NNW 22:06:05 44° NNW 22:06:05 44° NNW
SL-16 R/B 4.2 22:05:58 10° WNW 22:09:26 17° W 22:09:55 17° WSW
COSMOS 2455 3.1 22:09:10 57° W 22:10:02 65° WNW 22:16:03 10° NNE
Cosmos 2333 4.4 22:07:14 10° NNW 22:12:13 63° WNW 22:12:13 63° WNW
NOSS 3-1 (C) 4.0 22:05:05 10° NW 22:12:51 87° WSW 22:14:30 63° SSE
COSMOS 2428 2.8 22:12:18 10° NNW 22:17:35 71° NNE 22:17:35 71° NNE
Terra 4.3 22:26:49 12° W 22:26:50 12° W 22:28:34 10° WNW
USA 229 DEB 3.9 22:19:34 10° NNW 22:26:59 76° NE 22:28:16 63° ESE
USA 229 3.9 22:19:40 10° NNW 22:27:05 75° NE 22:28:23 62° ESE
ATLAS 5 CENTAUR R/B 2.7 22:24:38 10° NNW 22:30:14 57° NE 22:30:39 55° ENE
ALOS 2 3.9 22:33:57 39° NNW 22:33:57 39° NNW 22:36:46 10° NNW
Cosmos 1452 Rocket 4.3 22:28:49 10° NNW 22:32:49 44° WNW 22:32:49 44° WNW
USA 267 4.1 22:31:34 10° NE 22:37:44 46° NNW 22:43:54 10° WSW
Cosmos 2219 4.4 22:40:38 32° ENE 22:40:38 32° ENE 22:44:20 10° NE
SL-08 ROCKET BODY 4.4 22:44:13 77° NW 22:44:13 77° NW 22:50:05 10° N
Nadezhda 1 Rocket 4.2 22:38:08 10° N 22:44:26 60° ENE 22:44:26 60° ENE
NOSS 3-1 (A) 4.0 22:39:46 10° NW 22:47:33 86° WSW 22:48:49 69° SSE
Cosmos 2360 Rocket 4.2 22:49:18 10° WNW 22:51:53 16° W 22:51:53 16° W
Cosmos 1980 4.0 22:56:15 10° NNW 23:01:19 62° NNE 23:01:19 62° NNE
Cosmos 2333 Rocket 3.7 22:59:09 10° NW 23:02:38 26° W 23:02:38 26° W
CZ-2D R/B 4.5 23:07:20 10° ENE 23:09:04 12° E 23:09:04 12° E
USA 234 3.1 23:10:02 83° WSW 23:10:02 83° WSW 23:16:33 10° NW
Cosmos 2297 Rocket 2.4 23:17:11 66° NNE 23:17:11 66° NNE 23:22:03 10° NNE
NOSS 0 Rocket 4.2 23:10:40 10° NNW 23:16:01 60° WNW 23:16:01 60° WNW
Lacrosse 5 2.7 23:21:59 47° NNE 23:21:59 47° NNE 23:25:39 10° NE
Cosmos 2237 Rocket 2.5 23:19:18 10° NNW 23:24:02 63° NNW 23:24:02 63° NNW
Cosmos 2227 Rocket 2.4 23:28:53 66° NNE 23:28:53 66° NNE 23:33:43 10° NNE
Cosmos 2181 Rocket 4.5 23:24:17 10° N 23:30:25 49° ENE 23:30:50 48° E
Cosmos 909 Rocket 4.0 23:31:44 85° SE 23:31:49 86° ESE 23:39:16 10° NNE
Timation 1 Rocket 4.4 23:41:04 76° NNE 23:41:04 76° NNE 23:46:36 10° NNE
Meteor 1-11 Rocket 3.9 23:41:19 68° NNE 23:41:19 68° NNE 23:46:07 10° N
Cosmos 2263 Rocket 3.9 23:46:36 22° E 23:46:36 22° E 23:50:27 10° NE
Cosmos 2219 Rocket 4.4 23:43:28 10° WNW 23:44:40 13° WNW 23:44:40 13° WNW
SL-16 R/B 2.6 23:46:48 10° NNW 23:52:22 55° ENE 23:52:42 54° ENE
Cosmos 1992 Rocket 4.4 23:47:40 10° NNW 23:52:06 61° N 23:52:06 61° N
